Location: Nelson
(41.2830°S, 173.2830°E)
Time: 11:12:21
(UTC+13:00)

Radarsat Rocket - Pass Details

Date: 27 September 2021
Orbit: 933 x 1492 km, 100.6° (Epoch: 27 October)

Event Time Altitude Azimuth Distance (km) Brightness Sun altitude
Rises 20:11:17 0° 165° (SSE) 4,295 7.3 -8.8°
Reaches altitude 10° 20:14:07 10° 165° (SSE) 3,243 6.7 -9.3°
Maximum altitude 20:21:30 87° 251° (WSW) 1,141 4.4 -10.7°
Drops below altitude 10° 20:27:55 10° 341° (NNW) 2,834 6.5 -11.9°
Sets 20:30:15 0° 341° (NNW) 3,725 7.1 -12.3°
